User: anonymous   Login
Location: Unspecified
(0.0000°N, 0.0000°E)
Time: 23:48:54
(UTC+00:00)
Language:

Nova 1 - Orbit

View from above orbital plane
View from above orbital plane
View from above satellite
View from above satellite

Ground track
Ground track

The orbit data is extracted from the following two-line orbital elements,

1 12458U 81044A   17348.93530046 +.00000003 +00000-0 -13766-4 0  9991
2 12458 089.9497 120.6234 0013278 229.7734 245.0412 13.22975367765765
Epoch (UTC): 14 December 2017 22:26:49
Eccentricity: 0.0013278
inclination: 89.9497°
perigee height: 1163 km
apogee height: 1183 km
right ascension of ascending node: 120.6234°
argument of perigee: 229.7734°
revolutions per day: 13.22975367
mean anomaly at epoch: 245.0412°
orbit number at epoch: 76576

The dashed part of the orbit path shows where the satellite is in the earth's shadow,  

DLR